This is the latest recevied weather packets stored in our database for station/object W2GUX. If no packets are shown the sender has not sent any weather packets the latest 10 day(s).
| Time | Temp. | Humidity | Pressure | Rain* | Wind** | Luminosity | Snow |
|---|---|---|---|---|---|---|---|
| 1777302604 | 18.89° C | 36% | 1021.5 hPa | 0 mm | - | - | - |
| 1777302303 | 18.89° C | 37% | 1021.5 hPa | 0 mm | - | - | - |
| 1777302004 | 18.33° C | 37% | 1021.6 hPa | 0 mm | - | - | - |
| 1777301704 | 18.33° C | 37% | 1021.5 hPa | 0 mm | - | - | - |
| 1777301404 | 18.33° C | 37% | 1021.6 hPa | 0 mm | - | - | - |
| 1777301103 | 17.78° C | 37% | 1021.5 hPa | 0 mm | - | - | - |
| 1777300803 | 17.78° C | 38% | 1021.5 hPa | 0 mm | - | - | - |
| 1777300503 | 17.78° C | 38% | 1021.5 hPa | 0 mm | - | - | - |
| 1777300204 | 17.78° C | 39% | 1021.4 hPa | 0 mm | - | - | - |
| 1777299904 | 17.22° C | 40% | 1021.4 hPa | 0 mm | - | - | - |
| 1777299603 | 17.22° C | 41% | 1021.3 hPa | 0 mm | - | - | - |
| 1777299303 | 17.22° C | 43% | 1021.3 hPa | 0 mm | - | - | - |
| 1777299003 | 17.22° C | 42% | 1021.2 hPa | 0 mm | - | - | - |
| 1777298704 | 17.22° C | 44% | 1021.2 hPa | 0 mm | - | - | - |
| 1777298404 | 16.67° C | 45% | 1021.2 hPa | 0 mm | - | - | - |
| 1777298103 | 16.67° C | 48% | 1021.2 hPa | 0 mm | - | - | - |
| 1777297803 | 16.11° C | 51% | 1021.1 hPa | 0 mm | - | - | - |
| 1777297504 | 16.11° C | 53% | 1021.1 hPa | 0 mm | - | - | - |
| 1777297204 | 15.56° C | 54% | 1020.9 hPa | 0 mm | - | - | - |
| 1777296903 | 15.56° C | 57% | 1020.9 hPa | 0 mm | - | - | - |
| 1777296603 | 15° C | 57% | 1020.8 hPa | 0 mm | - | - | - |
| 1777296304 | 14.44° C | 57% | 1020.7 hPa | 0 mm | - | - | - |
| 1777296004 | 13.89° C | 59% | 1020.7 hPa | 0 mm | - | - | - |
| 1777295703 | 13.33° C | 63% | 1020.8 hPa | 0 mm | - | - | - |
| 1777295404 | 12.78° C | 64% | 1020.7 hPa | 0 mm | - | - | - |
* Rain latest hour (hover to see other rain measurements)
** Current wind speed in m/s (hover to see current wind gust speed)